Flag for Poland Weather past 2 weeks in Bielsko-Biała, Poland

Now
32 °F

Overcast.


Feels Like: 32 °F
Forecast: 30 / 39 °F
Wind: 2 mph from Southwest

Location: Katowice

Current Time: Mar 5, 2015 at 5:18:30 AM

Latest Report: Mar 5, 2015 at 3:00 AM


Visibility: 6 mi

Pressure: 30.35 "Hg

Humidity: 74%

Dew point: 24 °F

Location of Bielsko-BiałaLocation

Historic Weather in Bielsko-Biała — Graph

°F

Bielsko-Biała temperature yesterday

Maximum temperature yesterday: 41 °F (at 1:00 PM)
Minimum temperature yesterday: 30 °F (at 8:00 PM)
Average temperature yesterday: 36 °F

Past Weeks' High & Low Weather Summary

 TemperatureHumidityPressure
High52 °F (Feb 23, 3:00 PM)97% (Feb 27, 2:00 AM)30.76 "Hg (Feb 27, 2:00 AM)
Low24 °F (Feb 19, 6:00 AM)33% (Feb 21, 12:00 PM)29.55 "Hg (Mar 2, 1:00 PM)
Average38 °F78%30.02 "Hg
* Reported Feb 18 2:00 AM — Mar 5 2:00 AM, Bielsko-Biała, Weather by CustomWeather, © 2015

Note: Actual official high and low records may vary slightly from our data, if they occured in-between our weather recording intervals... More about our weather records

Advertising

Bielsko-Biała weather history for previous 24 hours

 ConditionsComfort  
Time TempWeatherWind HumidityBarometerVisibility
2:00 AM
Thu, Mar 5
30 °FFog.1 mph74%30.35 "Hg6 mi
1:00 AM30 °FFog.2 mph84%30.34 "Hg6 mi
12:00 AM32 °FFog.2 mph72%30.32 "Hg6 mi
11:00 PM
Wed, Mar 4
33 °FFog.2 mph70%30.31 "Hg6 mi
9:00 PM33 °FPassing clouds.2 mph75%30.29 "Hg6 mi
8:00 PM30 °FOvercast.1 mph81%30.29 "Hg6 mi
7:00 PM32 °FPassing clouds.1 mph72%30.27 "Hg6 mi
6:00 PM36 °FPassing clouds.2 mph64%30.25 "Hg6 mi
5:00 PM39 °FPassing clouds.3 mph54%30.23 "Hg12 mi
4:00 PM40 °FScattered clouds.5 mph57%30.21 "Hg12 mi
3:00 PM40 °FPassing clouds.6 mph67%30.20 "Hg12 mi
2:00 PM40 °FSnow flurries. Overcast.5 mph57%30.19 "Hg12 mi
1:00 PM41 °FPartly sunny.6 mph49%30.17 "Hg12 mi
12:00 PM39 °FPartly sunny.5 mph56%30.17 "Hg12 mi
11:00 AM36 °FOvercast.3 mph84%30.16 "Hg6 mi
10:00 AM34 °FOvercast.3 mph93%30.15 "Hg6 mi
9:00 AM33 °FSnow showers. Low clouds.2 mph92%30.13 "Hg1 mi
8:00 AM35 °FLight rain. Overcast.6 mph93%30.09 "Hg5 mi
7:00 AM36 °FLight rain. Overcast.5 mph86%30.07 "Hg4 mi
6:00 AM38 °FOvercast.5 mph59%30.03 "Hg12 mi
5:00 AM38 °FOvercast.6 mph60%30.04 "Hg12 mi
Weather by CustomWeather, © 2015

See weather overviewHow to use our weather pages